Simultaneous Nadir Overpasses (SNOs) Predictions

Prediction of SNOs near equator between AQUA and NPP Satellite Orbit:

Table of predicted SNOs near equator for the next 14.0 days since TLE Epoch: 9/1/2017
Index Date (AQUA) Time (AQUA) AQUA Lat,Lon Date (NPP) Time (NPP) NPP Lat,Lon Distance(km) Time Diff (sec)
1 09/02/2017 15:37:39 -11.92, 147.67 09/02/2017 15:27:39 -11.94, 147.58 9.65 600
2 09/02/2017 16:24:22 1.80, -42.53 09/02/2017 16:15:35 1.77, -42.82 32.08 527
3 09/02/2017 17:12:30 2.70, 126.08 09/02/2017 17:04:58 2.81, 125.54 61.73 452
4 09/02/2017 18:00:45 -7.27, -65.32 09/02/2017 17:54:28 -7.46, -66.12 90.90 377
5 09/05/2017 07:52:10 -4.78, -94.91 09/05/2017 07:42:34 -4.76, -95.02 12.34 576
6 09/05/2017 08:40:25 0.22, 73.68 09/05/2017 08:32:04 0.11, 73.32 42.33 501
7 09/05/2017 09:28:32 4.35,-117.69 09/05/2017 09:21:27 4.46,-118.33 71.87 425
8 09/08/2017 00:08:12 -3.15, 21.32 09/07/2017 23:59:03 -3.11, 21.12 22.67 549
9 09/08/2017 00:56:27 -1.42,-170.09 09/08/2017 00:48:33 -1.54,-170.55 52.59 474
10 09/08/2017 01:44:34 5.98, -1.46 09/08/2017 01:37:56 6.12, -2.19 81.93 398
11 09/10/2017 15:36:09 6.20, -31.11 09/10/2017 15:26:12 6.21, -31.14 3.73 597
12 09/10/2017 16:24:13 -1.52, 137.54 09/10/2017 16:15:32 -1.45, 137.25 33.08 522
13 09/10/2017 17:12:28 -3.05, -53.86 09/10/2017 17:05:01 -3.19, -54.41 62.89 447
14 09/10/2017 18:00:35 7.61, 114.77 09/10/2017 17:54:24 7.77, 113.95 91.89 371
15 09/13/2017 07:52:07 4.40, 85.15 09/13/2017 07:42:37 4.38, 85.03 13.58 570
16 09/13/2017 08:40:15 0.09,-106.23 09/13/2017 08:32:00 0.20,-106.61 43.57 495
17 09/13/2017 09:28:29 -4.73, 62.38 09/13/2017 09:21:30 -4.84, 61.73 73.07 419




NCC Satellite Simultaneous Nadir Overpasses (SNOs) Prediction Service
